Location: Unspecified
(42.9300°N, 71.1866°W)
Time: 18:09:07
(UTC-04:00)

Cosmos 1674 - Visible Passes

Search period start: 04 May 2015 00:00
Search period end: 14 May 2015 00:00
Orbit: 508 x 532 km, 82.5° (Epoch: 04 May)

Date Brightness Start Highest point End Pass type
(mag) Time Alt. Az. Time Alt. Az. Time Alt. Az.
04 May 2.7 04:42:40 10° S 04:46:30 88° W 04:50:25 10° N visible
05 May 2.8 04:29:02 10° S 04:32:53 78° E 04:36:46 10° N visible
06 May 3.1 04:15:25 10° S 04:19:14 66° E 04:23:06 10° NNE visible
07 May 3.4 04:01:50 10° S 04:05:35 55° E 04:09:25 10° NNE visible
08 May 3.7 03:48:35 12° SSE 03:51:56 46° E 03:55:43 10° NNE visible
09 May 3.9 03:35:21 14° SSE 03:38:18 39° E 03:41:58 10° NNE visible
10 May 4.2 03:22:05 16° SSE 03:24:39 33° E 03:28:12 10° NNE visible
11 May 4.5 03:08:48 17° SE 03:10:59 29° E 03:14:24 10° NNE visible
11 May 4.3 04:43:57 10° WSW 04:46:53 20° WNW 04:49:45 10° NNW visible
12 May 4.7 02:55:28 17° SE 02:57:20 25° E 03:00:35 10° NE visible
12 May 4.2 04:30:34 13° WSW 04:33:09 23° WNW 04:36:15 10° NNW visible
13 May 4.9 02:42:05 17° ESE 02:43:40 21° E 02:46:43 10° NE visible
13 May 4.0 04:17:12 16° WSW 04:19:23 26° WNW 04:22:43 10° NNW visible
